Location: Pabrico
(37.5827°N, 122.0063°W)
Time: 10:05:05
(UTC+00:00)

SL-16 R/B - Pass Details

Date: 13 April 2024
Orbit: 839 x 849 km, 71.0° (Epoch: 23 May)

Event Time Altitude Azimuth Distance (km) Brightness Sun altitude
Exits shadow 12:40:40 - 214° (SW) 2,590 4.2 -11.1°
Reaches altitude 10° 12:41:03 10° 215° (SW) 2,446 4.1 -11.1°
Maximum altitude 12:46:35 59° 295° (WNW) 963 2.3 -10.0°
Drops below altitude 10° 12:52:10 10° 15° (NNE) 2,465 5.1 -9.0°
Sets 12:54:40 0° 19° (NNE) 3,405 5.9 -8.5°
